Location: D�pe
(52.6057°N, 8.1808°E)
Time: 14:50:13
(UTC+00:00)

Cosmos 2058 Rocket - Pass Details

Date: 29 October 2020
Orbit: 610 x 640 km, 82.5° (Epoch: 28 November)

Event Time Altitude Azimuth Distance (km) Brightness Sun altitude
Rises 16:41:31 0° 163° (SSE) 2,924 6.5 -6.5°
Reaches altitude 10° 16:43:54 10° 153° (SSE) 2,024 5.6 -6.9°
Maximum altitude 16:47:54 33° 90° (E) 1,084 3.8 -7.5°
Drops below altitude 10° 16:51:58 10° 27° (NNE) 2,045 5.4 -8.1°
Sets 16:54:23 0° 18° (NNE) 2,959 6.2 -8.4°
